Regional Weather Roundup
Issued by NWS

Home | Current Version | Previous Version | Text Only | Print | Product List | Glossary Off
Versions: 1 2 3 4 5 6 7 8 9 10 11 12 13 14 15 16 17 18 19 20 21 22 23 24 25 26 27 28 29 30 31 32 33 34 35 36 37 38 39 40 41 42 43 44 45 46 47 48 49 50

000
ASUS45 KSLC 011710
RWRUT

UTAH REGIONAL WEATHER ROUNDUP
NATIONAL WEATHER SERVICE SALT LAKE CITY UT
1000 AM MST SUN FEB 01 2015

UTZ001>011-023>025-011800-

NORTHERN UTAH

CITY           SKY/WX    TMP DP  RH WIND       PRES   REMARKS
BRIGHAM CITY   SUNNY     30  26  86 CALM      30.26R
HILL AFB       SUNNY     35  22  59 E7        30.25R WCI  29
LOGAN          SUNNY     30  25  81 CALM      30.25R
OGDEN          SUNNY     35  26  69 S3        30.25R
PROVO AIRPORT  SUNNY     34  27  75 CALM      30.26R
SALT LAKE CITY MOSUNNY   36  29  75 S7        30.25R WCI  30
VERNAL         MOSUNNY   34  26  72 CALM      30.17R
WENDOVER       SUNNY     36  27  69 NE6       30.24R WCI  31
HEBER CITY     SUNNY     28  23  80 CALM      30.25R
WEST JORDAN    SUNNY     37  32  81 S9        30.25R WCI  31

$$

UTZ012>022-026-027-011800-

SOUTHERN/CENTRAL UTAH

CITY           SKY/WX    TMP DP  RH WIND       PRES   REMARKS
BLANDING       SUNNY     36  34  92 CALM      30.24R
BRYCE CANYON   SUNNY     30  23  75 W13       30.22S WCI  20
CEDAR CITY     SUNNY     34  26  72 NE3       30.23R
DELTA          SUNNY     31  31 100 SW3       30.26R
HANKSVILLE     SUNNY     34  32  93 CALM      30.21R
MILFORD        SUNNY     33  28  81 S7        30.25R WCI  27
MOAB/CYNLANDS  FOG       36  36 100 SE3       30.17R VSB 1/4
PRICE          SUNNY     42  13  30 N7G17     30.16R
ST GEORGE      SUNNY     45  30  57 CALM      30.24R

$$

REGIONAL REPORTS     COLORADO/ARIZONA

CITY           SKY/WX    TMP DP  RH WIND       PRES   REMARKS
CRAIG, CO      MOSUNNY   22  17  81 CALM      30.18R
GRAND JUNCTION SUNNY     36  31  82 SE3       30.19R
RIFLE          CLOUDY    27  23  85 CALM      30.21R
MONTROSE       SUNNY     35  27  72 CALM      30.21R
CORTEZ         SUNNY     40  24  53 CALM      30.14R
PAGE, AZ       NOT AVBL
GRAND CANYON   SUNNY     39  31  72 CALM      30.21R
KINGMAN        SUNNY     50  37  61 VRB3      30.19R
FLAGSTAFF      SUNNY     41  22  46 NE14      30.19R

$$

REGIONAL REPORTS    NEVADA/IDAHO/WYOMING

CITY           SKY/WX    TMP DP  RH WIND       PRES   REMARKS
LAS VEGAS, NV  MOSUNNY   52  38  58 S7        30.17R
ELY            SUNNY     32  21  64 S10       30.24S WCI  24
ELKO           CLOUDY    30  25  81 CALM      30.24S
POCATELLO, ID  CLOUDY    30  29  96 E3        30.23F FOG
BURLEY         CLOUDY    30  28  92 NE6       30.20S FOG     WCI  24
EVANSTON, WY   SUNNY     29  18  63 SW12      30.19R WCI  19
ROCK SPRINGS   SUNNY     27  12  53 VRB6      30.16R WCI  20

$$


USA.gov is the U.S. government's official web portal to all federal, state and local government web resources and services.